星链-11519 (STARLINK-11519)

导读

STARLINK-11519是美国SpaceX星链互联网星座的卫星,于2025年1月10日发射,属于星链部署计划的一员。星链旨在通过近地轨道卫星星座,为全球提供高速低延迟的宽带互联网服务,该卫星承担覆盖服务补网功能,推进全球互联覆盖能力的完善,服务民用商业通信场景。

基本信息
目录编号:
62560
目录名称:
STARLINK-11519
国际标识:
2025-006G
轨道中心:
EARTH
卫星名称:
星链-11519
卫星全名:
星链-11519 (STARLINK-11519)
卫星状态:
在轨 (已飞行520 天)
发射日期:
2025-01-10 UTC
国别 :
美国 (US)
星等 :
--
轨道信息
数据来源 国际轨道数据
星历时间: 2026-06-13T22:37:28+0800
1天前
查看轨道信息
半长轴: 6734.57km
偏心率: 0.0002041
轨道倾角: 43.002°
近地点辐角 256.711°
升交点赤经 282.120°
平近点角 103.353°
近地点: 355.058km
远地点: 357.808km
周期: 91.669分钟
每日圈数: 15.708618
详细信息
固有亮度:
5
最大亮度:
2.5
卫星平台:
Starlink V1.0
覆盖范围:
全球
运营商:
太空探索技术公司
运营商所在国:
美国
制造商(研发单位):
太空探索技术公司
制造商所在国:
美国
使用方式:
暂无
卫星简介
Starlink 计划是 SpaceX 推出的全球卫星互联网项目,通过发射低轨道卫星,为全球尤其是偏远地区提供高速、低延迟的互联网服务。自 2019 年起,Starlink 已部署数千颗卫星,旨在缩小全球数字鸿沟,推动互联网普及。该项目还为军事、航空等行业提供通信支持,带来广泛经济效益。
2D轨道图
3D轨道图
轨道高度分析图
轨道倾角分析图
轨道综合分析图
查看轨道综合分析图